Retour au catalogue

ORBCOMM FM 105

ActifCommunicationsLEO
NORAD 41181·PAYLOAD·🇺🇸 United States

Lancé Dec 22, 2015 depuis Cape Canaveral Space Force Station

Loading…

Prochains Passages (prochaines 24 heures)

TLE

FraisSource: Space-Track

Époque: Sep 14, 2026, 07:05 UTC

1 41181U 15081C   26257.29549739  .00000044  00000-0  56617-4 0  9997
2 41181  47.0004 259.8045 0002228 224.2500 135.8202 14.45601357566446

Suivez ORBCOMM FM 105 en temps réel avec AllMySat

Download on the App Store